sat.trackr.live / text

‹ back to catalog

STARLINK-3624

NORAD 51773 · 2022-017F

PAYLOAD ACTIVE UNKNOWN

§ Identity

Operator
Country
US
Launch date
2022-02-25
Launch site
AFWTR
Launch vehicle
Mass (kg)
RCS (m²)

Purposes: comms

External: N2YO · Heavens-Above · Gunter

§ Orbital elements

Epoch: 2026-05-24T20:23:08.336256Z

Period
95.44 min
Inclination
53.2153°
Eccentricity
0.0001293
Mean motion
15.08835290 rev/d
Perigee alt
538.9 km
Apogee alt
540.7 km
Semi-major
6,917.9 km
B*
-1.2284e-5
RAAN
357.1952°
Arg perigee
95.3504°
Mean anomaly
264.7636°
Rev number
23,410

§ Raw data

STARLINK-36241 51773U 22017F   26144.84940204 -.00000483  00000+0 -12284-4 0  99902 51773  53.2153 357.1952 0001293  95.3504 264.7636 15.08835290234102

JSON: /api/v1/satellites/51773 · /tle

For live sub-satellite position, see the globe view (requires WebGL).

§ Visibility from observer

Set your observer location to see the next 7 days of passes ≥ 10°. The values pass through the URL so the page stays shareable.

No JS? Fill the form by hand. The geolocation button needs JavaScript.